KC5JIM Weather Reports


Display with metric or nautical units.
time (UTC)temp
F
wind
direction
speed
MPH
gust
MPH
rain 1hr
in
rain 24hr
in
rain mn
in
humidity
%
barometer
mb
20260905175005 88 151 3.0 6.0 0.00 0.00 0.00 39 1010.2
20260905174501 89 183 6.0 11.0 0.00 0.00 0.00 40 1010.2
20260905173957 88 216 3.0 9.0 0.00 0.00 0.00 41 1010.2
20260905173909 88 169 4.0 9.0 0.00 0.00 0.00 41 1010.3
20260905173317 88 121 4.0 8.0 0.00 0.00 0.00 41 1010.5
20260905172813 87 110 4.0 6.0 0.00 0.00 0.00 40 1010.4
20260905172310 87 127 3.0 7.0 0.00 0.00 0.00 41 1010.5
20260905172029 87 186 4.0 9.0 0.00 0.00 0.00 42 1010.6
20260905171301 87 169 4.0 5.0 0.00 0.00 0.00 42 1010.5
20260905171250 86 62 4.0 8.0 0.00 0.00 0.00 42 1010.6
20260905170253 86 180 8.0 8.0 0.00 0.00 0.00 43 1010.6
20260905165749 87 100 7.0 10.0 0.00 0.00 0.00 44 1010.7
20260905165245 87 325 3.0 5.0 0.00 0.00 0.00 43 1010.7
20260905164741 85 351 4.0 6.0 0.00 0.00 0.00 43 1010.6
20260905164237 85 84 2.0 3.0 0.00 0.00 0.00 44 1010.9
20260905163733 85 11 3.0 7.0 0.00 0.00 0.00 45 1010.6
20260905163229 86 47 4.0 5.0 0.00 0.00 0.00 44 1010.7
20260905162725 85 353 4.0 6.0 0.00 0.00 0.00 44 1010.8
20260905162221 84 189 1.0 5.0 0.00 0.00 0.00 47 1010.9
20260905161717 84 264 1.0 5.0 0.00 0.00 0.00 47 1010.8
20260905161437 84 104 2.0 6.0 0.00 0.00 0.00 47 1011.0
20260905160929 84 81 6.0 6.0 0.00 0.00 0.00 48 1011.0
20260905160427 84 345 2.0 5.0 0.00 0.00 0.00 48 1010.8
20260905155701 83 2 2.0 4.0 0.00 0.00 0.00 48 1010.7
20260905155418 83 70 4.0 4.0 0.00 0.00 0.00 48 1010.8
20260905154653 83 347 2.0 3.0 0.00 0.00 0.00 49 1010.7
20260905154149 84 67 2.0 4.0 0.00 0.00 0.00 49 1010.5
20260905153645 82 185 2.0 3.0 0.00 0.00 0.00 51 1011.0
20260905153405 82 93 2.0 4.0 0.00 0.00 0.00 51 1010.5
20260905152637 82 182 1.0 4.0 0.00 0.00 0.00 53 1010.8
20260905152133 81 95 2.0 4.0 0.00 0.00 0.00 54 1010.9
20260905151629 81 48 2.0 3.0 0.00 0.00 0.00 55 1011.2
20260905151125 82 155 2.0 4.0 0.00 0.00 0.00 54 1010.6
20260905150621 82 282 1.0 2.0 0.00 0.00 0.00 54 1010.6
20260905150118 81 168 0.0 4.0 0.00 0.00 0.00 56 1010.9
20260905145614 82 177 2.0 3.0 0.00 0.00 0.00 56 1010.7
20260905145110 82 177 2.0 3.0 0.00 0.00 0.00 55 1010.8
20260905144606 82 273 0.0 2.0 0.00 0.00 0.00 55 1010.9
20260905144101 82 141 0.0 3.0 0.00 0.00 0.00 58 1010.7
20260905143821 80 173 1.0 2.0 0.00 0.00 0.00 59 1010.7
20260905143053 80 310 0.0 2.0 0.00 0.00 0.00 60 1010.8
20260905142549 78 233 1.0 2.0 0.00 0.00 0.00 63 1010.8
20260905142046 78 351 1.0 3.0 0.00 0.00 0.00 64 1011.0
20260905141541 78 331 0.0 2.0 0.00 0.00 0.00 65 1010.7
20260905141038 76 285 1.0 2.0 0.00 0.00 0.00 67 1011.0
20260905140534 76 95 1.0 4.0 0.00 0.00 0.00 67 1010.8
20260905140251 76 59 0.0 4.0 0.00 0.00 0.00 68 1010.9
20260905135749 76 331 1.0 4.0 0.00 0.00 0.00 68 1010.7
20260905135022 76 87 2.0 6.0 0.00 0.00 0.00 69 1010.7
20260905134518 75 79 5.0 6.0 0.00 0.00 0.00 69 1010.7
20260905134014 75 84 1.0 4.0 0.00 0.00 0.00 70 1010.5
20260905133510 74 46 3.0 5.0 0.00 0.00 0.00 71 1010.6
20260905133006 74 16 2.0 4.0 0.00 0.00 0.00 72 1010.4
20260905132502 73 305 1.0 2.0 0.00 0.00 0.00 72 1010.3
20260905131958 73 42 2.0 3.0 0.00 0.00 0.00 73 1010.3
20260905131454 73 187 0.0 3.0 0.00 0.00 0.00 73 1010.3
20260905131210 73 80 0.0 2.0 0.00 0.00 0.00 73 1010.4
20260905130446 72 87 1.0 2.0 0.00 0.00 0.00 73 1010.1
20260905125942 72 25 0.0 2.0 0.00 0.00 0.00 74 1010.3
20260905125438 72 113 0.0 2.0 0.00 0.00 0.00 75 1010.3
20260905124429 72 325 1.0 3.0 0.00 0.00 0.00 75 1010.1
20260905123925 72 295 1.0 4.0 0.00 0.00 0.00 75 1010.0
20260905123421 72 56 1.0 3.0 0.00 0.00 0.00 76 1010.0
20260905123138 72 223 1.0 2.0 0.00 0.00 0.00 76 1010.0
20260905122413 72 102 0.0 1.0 0.00 0.00 0.00 76 1009.9
20260905121909 72 274 0.0 2.0 0.00 0.00 0.00 76 1010.0
20260905121405 72 250 0.0 4.0 0.00 0.00 0.00 76 1009.7
20260905120901 72 80 0.0 3.0 0.00 0.00 0.00 75 1010.0
20260905120618 72 357 1.0 2.0 0.00 0.00 0.00 76 1009.8
20260905115853 72 197 0.0 2.0 0.00 0.00 0.00 75 1009.9
20260905115349 73 271 0.0 3.0 0.00 0.00 0.00 74 1009.6
20260905114845 74 24 1.0 2.0 0.00 0.00 0.00 73 1009.4
20260905114342 74 332 2.0 5.0 0.00 0.00 0.00 73 1009.5
20260905113838 74 8 0.0 3.0 0.00 0.00 0.00 73 1009.4
20260905113334 74 135 0.0 2.0 0.00 0.00 0.00 73 1009.4
20260905112830 74 286 0.0 3.0 0.00 0.00 0.00 73 1009.4
20260905112545 74 78 0.0 2.0 0.00 0.00 0.00 72 1009.5
20260905111822 74 155 1.0 3.0 0.00 0.00 0.00 72 1009.7
20260905111318 73 74 2.0 2.0 0.00 0.00 0.00 73 1009.7
20260905110814 73 322 0.0 2.0 0.00 0.00 0.00 74 1009.8
20260905110309 73 108 0.0 2.0 0.00 0.00 0.00 74 1009.9
20260905105806 73 318 2.0 4.0 0.00 0.00 0.00 73 1009.8
20260905105523 74 273 1.0 2.0 0.00 0.00 0.00 72 1009.6
20260905104757 74 135 0.0 1.0 0.00 0.00 0.00 71 1009.4
20260905103749 75 25 0.0 1.0 0.00 0.00 0.00 70 1009.4
20260905103245 75 129 0.0 1.0 0.00 0.00 0.00 70 1009.6
20260905102741 75 154 0.0 1.0 0.00 0.00 0.00 71 1009.5
20260905102237 74 157 0.0 0.0 0.00 0.00 0.00 70 1009.7
20260905101733 75 157 0.0 1.0 0.00 0.00 0.00 70 1009.3
20260905101229 75 309 0.0 2.0 0.00 0.00 0.00 69 1009.4
20260905100949 75 343 1.0 2.0 0.00 0.00 0.00 70 1009.5
20260905100222 75 269 0.0 1.0 0.00 0.00 0.00 69 1009.5
20260905095718 75 269 0.0 3.0 0.00 0.00 0.00 69 1009.6
20260905095214 75 336 0.0 2.0 0.00 0.00 0.00 69 1009.7
20260905094930 76 269 0.0 1.0 0.00 0.00 0.00 68 1009.7
20260905094657 76 283 0.0 2.0 0.00 0.00 0.00 68 1009.5
20260905093702 76 242 0.0 2.0 0.00 0.00 0.00 68 1009.5
20260905093157 76 289 0.0 3.0 0.00 0.00 0.00 68 1009.6
20260905092653 76 293 3.0 3.0 0.00 0.00 0.00 67 1009.5
20260905092149 76 269 2.0 2.0 0.00 0.00 0.00 66 1009.5
20260905091646 77 255 0.0 2.0 0.00 0.00 0.00 65 1009.7
20260905091142 77 309 0.0 2.0 0.00 0.00 0.00 65 1009.4
20260905090637 78 343 0.0 2.0 0.00 0.00 0.00 64 1009.4
20260905090133 78 1 2.0 4.0 0.00 0.00 0.00 63 1009.3
20260905085854 78 355 1.0 3.0 0.00 0.00 0.00 62 1009.3
20260905085125 79 345 0.0 2.0 0.00 0.00 0.00 62 1009.4
20260905084845 79 75 0.0 1.0 0.00 0.00 0.00 62 1009.5
20260905084117 79 62 0.0 1.0 0.00 0.00 0.00 62 1009.5
20260905083613 79 22 0.0 3.0 0.00 0.00 0.00 61 1009.5
20260905083109 79 28 0.0 3.0 0.00 0.00 0.00 61 1009.5
20260905082605 79 44 2.0 4.0 0.00 0.00 0.00 61 1009.5
20260905082101 79 309 0.0 4.0 0.00 0.00 0.00 61 1009.5
20260905081557 79 24 2.0 4.0 0.00 0.00 0.00 61 1009.5
20260905081315 79 28 0.0 2.0 0.00 0.00 0.00 61 1009.7
20260905080812 79 23 1.0 3.0 0.00 0.00 0.00 61 1009.6
20260905080046 79 59 3.0 5.0 0.00 0.00 0.00 60 1009.9
20260905075542 80 9 1.0 3.0 0.00 0.00 0.00 60 1009.7
20260905075038 80 61 1.0 4.0 0.00 0.00 0.00 59 1009.7
20260905074754 80 49 2.0 3.0 0.00 0.00 0.00 59 1009.5
20260905074029 80 66 1.0 4.0 0.00 0.00 0.00 59 1009.7
20260905073525 80 93 2.0 3.0 0.00 0.00 0.00 59 1009.8
20260905073021 79 129 0.0 1.0 0.00 0.00 0.00 61 1009.9
20260905072517 79 249 0.0 0.0 0.00 0.00 0.00 60 1009.8
20260905072013 79 255 0.0 2.0 0.00 0.00 0.00 60 1009.8
20260905071509 80 300 2.0 4.0 0.00 0.00 0.00 59 1009.6
20260905071005 81 268 2.0 2.0 0.00 0.00 0.00 58 1009.5
20260905070501 81 107 0.0 5.0 0.00 0.00 0.00 57 1009.7
20260905070220 81 88 2.0 2.0 0.00 0.00 0.00 58 1009.8
20260905065453 81 98 2.0 3.0 0.00 0.00 0.00 57 1009.5
20260905064949 81 172 1.0 3.0 0.00 0.00 0.00 57 1009.6
20260905064446 81 224 0.0 3.0 0.00 0.00 0.00 57 1009.8
20260905063941 81 214 0.0 3.0 0.00 0.00 0.00 56 1010.0
20260905063438 82 235 0.0 3.0 0.00 0.00 0.00 56 1009.6
20260905062430 82 5 0.0 3.0 0.00 0.00 0.00 55 1009.4
20260905062148 82 45 3.0 7.0 0.00 0.00 0.00 54 1009.2
20260905061422 83 73 8.0 11.0 0.00 0.00 0.00 54 1009.4
20260905060918 83 84 4.0 11.0 0.00 0.00 0.00 53 1009.2
20260905060414 83 65 2.0 11.0 0.00 0.00 0.00 53 1009.5
20260905055910 83 84 6.0 11.0 0.00 0.00 0.00 53 1009.3
20260905055405 83 72 5.0 11.0 0.00 0.00 0.00 53 1009.3
20260905054902 84 89 10.0 11.0 0.00 0.00 0.00 52 1009.3
20260905054357 84 84 3.0 7.0 0.00 0.00 0.00 52 1009.3
20260905053853 84 60 2.0 7.0 0.00 0.00 0.00 52 1009.4
20260905053349 84 73 3.0 6.0 0.00 0.00 0.00 52 1009.3
20260905052845 84 69 5.0 10.0 0.00 0.00 0.00 52 1009.4
20260905052605 84 71 9.0 9.0 0.00 0.00 0.00 51 1009.3
20260905051837 85 54 2.0 10.0 0.00 0.00 0.00 51 1009.1
20260905051333 85 85 4.0 6.0 0.00 0.00 0.00 51 1009.1
20260905050829 85 84 4.0 7.0 0.00 0.00 0.00 50 1009.1
20260905050325 85 86 6.0 10.0 0.00 0.00 0.00 50 1009.1
20260905045821 85 106 4.0 9.0 0.00 0.00 0.00 50 1009.0
20260905045317 85 68 4.0 7.0 0.00 0.00 0.00 49 1009.0
20260905044813 85 31 0.0 4.0 0.00 0.00 0.00 49 1009.1
20260905044310 85 33 2.0 6.0 0.00 0.00 0.00 49 1008.8
20260905044025 85 57 3.0 4.0 0.00 0.00 0.00 49 1009.0
20260905043302 85 53 2.0 7.0 0.00 0.00 0.00 49 1009.0
20260905043021 86 32 3.0 4.0 0.00 0.00 0.00 49 1008.9
20260905042514 86 57 1.0 6.0 0.00 0.00 0.00 49 1009.0
20260905041749 86 39 3.0 5.0 0.00 0.00 0.00 48 1009.0
20260905041246 86 27 1.0 6.0 0.00 0.00 0.00 48 1009.0
20260905040742 86 37 3.0 4.0 0.00 0.00 0.00 48 1009.2
20260905040237 87 35 2.0 7.0 0.00 0.00 0.00 46 1009.0
20260905035733 87 30 3.0 4.0 0.00 0.00 0.00 44 1009.0
20260905035230 87 62 3.0 5.0 0.00 0.00 0.00 43 1009.1
20260905034726 88 77 0.0 4.0 0.00 0.00 0.00 42 1008.8
20260905034221 88 85 4.0 5.0 0.00 0.00 0.00 41 1009.0
20260905033718 89 95 3.0 6.0 0.00 0.00 0.00 39 1008.6
20260905033214 89 74 3.0 5.0 0.00 0.00 0.00 36 1008.6
20260905032710 89 92 3.0 10.0 0.00 0.00 0.00 37 1008.3
20260905032206 89 107 2.0 4.0 0.00 0.00 0.00 35 1008.3
20260905031702 89 144 3.0 4.0 0.00 0.00 0.00 35 1008.2
20260905031158 89 135 0.0 3.0 0.00 0.00 0.00 35 1008.2
20260905030654 89 134 2.0 3.0 0.00 0.00 0.00 34 1008.0
20260905030149 89 122 1.0 3.0 0.00 0.00 0.00 34 1008.1
20260905025645 89 146 0.0 4.0 0.00 0.00 0.00 34 1008.0
20260905025141 89 139 2.0 3.0 0.00 0.00 0.00 34 1008.0
20260905024859 89 150 0.0 4.0 0.00 0.00 0.00 34 1007.7
20260905024133 90 123 2.0 3.0 0.00 0.00 0.00 34 1007.9
20260905023629 90 129 2.0 3.0 0.00 0.00 0.00 33 1007.5
20260905023125 90 128 2.0 2.0 0.00 0.00 0.00 33 1007.5
20260905022621 90 106 2.0 5.0 0.00 0.00 0.00 33 1007.5
20260905022117 90 185 1.0 3.0 0.00 0.00 0.00 33 1007.6
20260905021613 90 170 1.0 3.0 0.00 0.00 0.00 33 1007.5
20260905021109 90 152 2.0 4.0 0.00 0.00 0.00 32 1007.5
20260905020606 90 190 3.0 4.0 0.00 0.00 0.00 32 1007.4
20260905015557 91 176 4.0 6.0 0.00 0.00 0.00 32 1007.4
20260905015054 91 175 4.0 6.0 0.00 0.00 0.00 32 1007.3
20260905015043 91 151 2.0 8.0 0.00 0.00 0.00 32 1007.3
20260905014306 91 180 1.0 9.0 0.00 0.00 0.00 32 1007.2
20260905013541 92 161 3.0 7.0 0.00 0.00 0.00 32 1007.2
20260905013037 92 178 2.0 6.0 0.00 0.00 0.00 32 1007.0
20260905012533 92 183 3.0 9.0 0.00 0.00 0.00 32 1007.2
20260905012029 92 164 5.0 10.0 0.00 0.00 0.00 32 1007.2
20260905012015 92 168 10.0 14.0 0.00 0.00 0.00 32 1007.1
20260905011021 92 177 4.0 10.0 0.00 0.00 0.00 32 1007.1
20260905010517 93 170 7.0 10.0 0.00 0.00 0.00 32 1007.1
20260905010013 93 159 4.0 8.0 0.00 0.00 0.00 32 1007.0
20260905005509 93 199 5.0 11.0 0.00 0.00 0.00 32 1007.0
20260905005225 93 162 7.0 11.0 0.00 0.00 0.00 32 1006.9
20260905004501 93 178 7.0 10.0 0.00 0.00 0.00 31 1007.0
20260905004220 93 201 6.0 11.0 0.00 0.00 0.00 32 1007.1
20260905003453 92 175 6.0 12.0 0.00 0.00 0.00 33 1007.1
20260905002949 92 175 7.0 10.0 0.00 0.00 0.00 33 1007.0
20260905002445 92 171 9.0 13.0 0.00 0.00 0.00 34 1007.0
20260905001941 93 178 9.0 16.0 0.00 0.00 0.00 33 1006.9
20260905001437 93 176 8.0 10.0 0.00 0.00 0.00 32 1006.8
20260905000933 94 281 2.0 8.0 0.00 0.00 0.00 32 1006.6
20260905000429 93 182 3.0 9.0 0.00 0.00 0.00 32 1006.8
20260904235925 93 204 8.0 16.0 0.00 0.00 0.00 31 1006.4
20260904235421 93 208 2.0 13.0 0.00 0.00 0.00 31 1006.7
20260904234917 93 183 5.0 12.0 0.00 0.00 0.00 31 1006.7
20260904234413 93 210 7.0 11.0 0.00 0.00 0.00 31 1006.7
20260904233909 93 145 9.0 12.0 0.00 0.00 0.00 30 1006.8
20260904233405 93 205 10.0 15.0 0.00 0.00 0.00 31 1006.6
20260904232901 93 172 15.0 20.0 0.00 0.00 0.00 31 1006.8
20260904232619 94 195 6.0 13.0 0.00 0.00 0.00 30 1006.8
20260904231853 93 208 3.0 15.0 0.00 0.00 0.00 31 1006.9
20260904231349 94 189 6.0 14.0 0.00 0.00 0.00 30 1006.8
20260904231337 92 127 3.0 7.0 0.00 0.00 0.00 31 1007.1
20260904230341 93 145 8.0 17.0 0.00 0.00 0.00 31 1007.1
20260904225837 93 167 13.0 13.0 0.00 0.00 0.00 31 1006.9
20260904225556 93 176 4.0 13.0 0.00 0.00 0.00 30 1007.1
20260904225054 93 168 6.0 11.0 0.00 0.00 0.00 32 1007.2
20260904224326 93 152 8.0 15.0 0.00 0.00 0.00 31 1007.0
20260904223822 93 209 14.0 17.0 0.00 0.00 0.00 33 1007.1
20260904223318 92 123 5.0 14.0 0.00 0.00 0.00 34 1007.2
20260904222814 93 136 11.0 22.0 0.00 0.00 0.00 34 1007.3
20260904222533 93 163 11.0 13.0 0.00 0.00 0.00 33 1007.3
20260904221806 93 113 8.0 11.0 0.00 0.00 0.00 32 1007.2
20260904221524 93 155 6.0 18.0 0.00 0.00 0.00 34 1007.2
20260904220758 93 159 6.0 10.0 0.00 0.00 0.00 34 1007.4
20260904220254 94 153 9.0 16.0 0.00 0.00 0.00 34 1007.4
20260904215750 93 132 4.0 10.0 0.00 0.00 0.00 34 1007.4
20260904215246 93 265 2.0 6.0 0.00 0.00 0.00 34 1007.4
20260904215003 92 27 5.0 11.0 0.00 0.00 0.00 33 1007.7
20260904214237 93 144 4.0 11.0 0.00 0.00 0.00 34 1007.6
20260904213733 92 102 4.0 12.0 0.00 0.00 0.00 34 1008.0
20260904213229 92 186 7.0 9.0 0.00 0.00 0.00 34 1007.6
20260904212725 92 188 4.0 14.0 0.00 0.00 0.00 35 1007.7
20260904212221 93 173 4.0 10.0 0.00 0.00 0.00 33 1007.7
20260904211717 92 176 9.0 12.0 0.00 0.00 0.00 34 1007.7
20260904211213 92 156 2.0 11.0 0.00 0.00 0.00 33 1008.0
20260904210931 92 88 2.0 8.0 0.00 0.00 0.00 33 1008.0
20260904210205 92 132 2.0 6.0 0.00 0.00 0.00 33 1008.1
20260904205701 91 268 2.0 8.0 0.00 0.00 0.00 32 1008.2
20260904205157 91 181 0.0 6.0 0.00 0.00 0.00 32 1008.2
20260904205147 91 189 6.0 11.0 0.00 0.00 0.00 33 1008.5
20260904204149 91 151 7.0 15.0 0.00 0.00 0.00 34 1008.3
20260904203645 92 152 11.0 16.0 0.00 0.00 0.00 36 1008.1
20260904203141 91 89 11.0 12.0 0.00 0.00 0.00 37 1008.3
20260904202638 91 33 5.0 11.0 0.00 0.00 0.00 39 1008.6
20260904202133 91 38 8.0 11.0 0.00 0.00 0.00 38 1008.5
20260904201850 90 263 3.0 6.0 0.00 0.00 0.00 38 1008.7
20260904201125 90 182 4.0 9.0 0.00 0.00 0.00 38 1008.9
20260904200846 91 171 19.0 19.0 0.00 0.00 0.00 37 1008.8
20260904200117 90 103 3.0 10.0 0.00 0.00 0.00 39 1008.9
20260904195614 90 159 1.0 7.0 0.00 0.00 0.00 41 1009.0
20260904195110 90 171 4.0 12.0 0.00 0.00 0.00 41 1009.0
20260904194606 90 164 3.0 7.0 0.00 0.00 0.00 40 1009.2
20260904194102 90 167 1.0 5.0 0.00 0.00 0.00 41 1009.4
20260904193558 90 104 4.0 10.0 0.00 0.00 0.00 42 1009.2
20260904193054 89 23 3.0 12.0 0.00 0.00 0.00 42 1009.6
20260904192550 88 115 2.0 4.0 0.00 0.00 0.00 40 1009.6
20260904192046 89 53 6.0 12.0 0.00 0.00 0.00 40 1009.7
20260904191805 89 77 7.0 12.0 0.00 0.00 0.00 40 1009.7
20260904191038 89 119 4.0 15.0 0.00 0.00 0.00 40 1009.8
20260904190534 88 302 2.0 4.0 0.00 0.00 0.00 41 1009.8
20260904190253 88 262 2.0 10.0 0.00 0.00 0.00 42 1010.0
20260904185526 88 159 4.0 12.0 0.00 0.00 0.00 42 1010.0
20260904185022 87 54 1.0 8.0 0.00 0.00 0.00 43 1010.3
20260904184742 89 88 7.0 12.0 0.00 0.00 0.00 44 1010.3
20260904184013 87 94 6.0 11.0 0.00 0.00 0.00 47 1010.3
20260904183510 87 137 3.0 11.0 0.00 0.00 0.00 47 1010.4
20260904183225 87 164 5.0 7.0 0.00 0.00 0.00 48 1010.4
20260904182501 88 202 6.0 11.0 0.00 0.00 0.00 47 1010.4
20260904181958 87 347 0.0 7.0 0.00 0.00 0.00 46 1010.5
20260904181454 87 95 5.0 11.0 0.00 0.00 0.00 47 1010.8
20260904181441 87 197 6.0 6.0 0.00 0.00 0.00 47 1010.9
20260904180446 86 171 2.0 6.0 0.00 0.00 0.00 49 1010.8
20260904175941 87 147 5.0 8.0 0.00 0.00 0.00 48 1010.8
20260904175438 86 98 6.0 6.0 0.00 0.00 0.00 48 1011.0